�������l�o���
Date,Time,MP-1(��Sv/h),MP-2(��Sv/h),MP-3(��Sv/h),MP-4(��Sv/h),MP-5(��Sv/h),MP-6(��Sv/h),MP-7(��Sv/h),MP-8(��Sv/h),����,����(m/s),���J
2023/10/06,00:00,0.521,0.793,0.490,0.990,0.706,0.320,0.570,0.530,��쐼,3.1,��
2023/10/06,00:10,0.520,0.790,0.489,0.987,0.707,0.320,0.573,0.532,��쐼,4.3,��
2023/10/06,00:20,0.520,0.791,0.487,0.990,0.705,0.319,0.572,0.530,��쐼,3.9,��
2023/10/06,00:30,0.521,0.791,0.488,0.988,0.707,0.318,0.572,0.530,�쐼,3.2,��
2023/10/06,00:40,0.521,0.792,0.489,0.988,0.707,0.321,0.573,0.531,��쐼,3.2,��
2023/10/06,00:50,0.520,0.790,0.488,0.988,0.707,0.320,0.570,0.531,�쐼,3.3,��
2023/10/06,01:00,0.519,0.793,0.488,0.989,0.707,0.319,0.570,0.532,��쐼,2.5,��
2023/10/06,01:10,0.519,0.791,0.488,0.988,0.705,0.320,0.573,0.532,��쐼,2.6,��
2023/10/06,01:20,0.521,0.791,0.488,0.990,0.708,0.319,0.572,0.532,�쐼,3.1,��
2023/10/06,01:30,0.521,0.791,0.487,0.990,0.705,0.320,0.572,0.530,�쐼,2.5,��
2023/10/06,01:40,0.521,0.791,0.488,0.990,0.708,0.321,0.572,0.531,�쐼,1.9,��
2023/10/06,01:50,0.522,0.791,0.487,0.990,0.707,0.320,0.573,0.530,���쐼,3.0,��
2023/10/06,02:00,0.520,0.789,0.488,0.989,0.706,0.319,0.573,0.530,�쐼,1.7,��
2023/10/06,02:10,0.521,0.791,0.487,0.991,0.708,0.320,0.573,0.530,��쐼,2.0,��
2023/10/06,02:20,0.521,0.790,0.489,0.989,0.707,0.318,0.572,0.529,��쐼,2.9,��
2023/10/06,02:30,0.519,0.792,0.488,0.989,0.706,0.320,0.572,0.530,��,2.6,��
2023/10/06,02:40,0.521,0.792,0.488,0.989,0.706,0.321,0.573,0.529,��쐼,2.2,��
2023/10/06,02:50,0.519,0.793,0.488,0.988,0.705,0.319,0.573,0.530,���쐼,3.5,��
2023/10/06,03:00,0.519,0.788,0.488,0.989,0.708,0.320,0.571,0.530,��,5.6,��
2023/10/06,03:10,0.521,0.789,0.488,0.989,0.706,0.319,0.572,0.531,��,4.9,��
2023/10/06,03:20,0.519,0.790,0.489,0.989,0.706,0.320,0.573,0.531,��,4.8,��
2023/10/06,03:30,0.519,0.791,0.488,0.989,0.705,0.319,0.572,0.531,��,4.5,��
2023/10/06,03:40,0.519,0.791,0.488,0.989,0.706,0.320,0.573,0.530,���쐼,3.3,��
2023/10/06,03:50,0.520,0.791,0.488,0.990,0.707,0.319,0.574,0.531,���쐼,3.5,��
2023/10/06,04:00,0.519,0.792,0.488,0.988,0.706,0.321,0.574,0.531,��,3.7,��
2023/10/06,04:10,0.521,0.792,0.489,0.991,0.707,0.319,0.572,0.532,��,4.3,��
2023/10/06,04:20,0.520,0.791,0.490,0.990,0.706,0.318,0.573,0.531,��,5.0,��
2023/10/06,04:30,0.519,0.790,0.487,0.990,0.707,0.321,0.573,0.532,��,5.3,��
2023/10/06,04:40,0.520,0.791,0.488,0.990,0.705,0.318,0.573,0.530,���k��,4.6,��
2023/10/06,04:50,0.519,0.789,0.488,0.990,0.705,0.319,0.573,0.530,��,4.5,��
2023/10/06,05:00,0.519,0.792,0.486,0.989,0.707,0.319,0.574,0.531,���k��,4.3,��
2023/10/06,05:10,0.521,0.789,0.488,0.990,0.705,0.319,0.573,0.530,���k��,6.0,��
2023/10/06,05:20,0.519,0.791,0.487,0.990,0.707,0.320,0.575,0.531,���k��,6.8,��
2023/10/06,05:30,0.521,0.790,0.489,0.989,0.708,0.319,0.572,0.531,��,5.2,��
2023/10/06,05:40,0.520,0.792,0.487,0.990,0.707,0.319,0.573,0.531,���k��,6.3,��
2023/10/06,05:50,0.519,0.790,0.489,0.989,0.707,0.318,0.572,0.532,���k��,7.2,��
2023/10/06,06:00,0.521,0.790,0.488,0.991,0.710,0.319,0.573,0.531,��,6.6,��
2023/10/06,06:10,0.518,0.792,0.489,0.988,0.710,0.319,0.572,0.531,���k��,11.0,��
2023/10/06,06:20,0.521,0.792,0.488,0.992,0.707,0.318,0.572,0.530,���k��,9.7,��
2023/10/06,06:30,0.520,0.794,0.489,0.993,0.707,0.319,0.570,0.532,���k��,7.6,��
2023/10/06,06:40,0.520,0.790,0.489,0.991,0.706,0.321,0.571,0.531,���k��,7.1,��
2023/10/06,06:50,0.519,0.791,0.488,0.992,0.708,0.321,0.571,0.531,�k��,7.1,��
2023/10/06,07:00,0.522,0.791,0.488,0.989,0.707,0.321,0.569,0.533,���k��,8.6,��
2023/10/06,07:10,0.520,0.792,0.489,0.991,0.707,0.319,0.569,0.532,��,7.2,��
2023/10/06,07:20,0.520,0.793,0.489,0.992,0.709,0.319,0.569,0.530,���k��,7.7,��
2023/10/06,07:30,0.520,0.793,0.490,0.991,0.708,0.320,0.569,0.533,��,9.3,��
2023/10/06,07:40,0.522,0.790,0.488,0.993,0.706,0.318,0.570,0.534,���k��,9.6,��
2023/10/06,07:50,0.520,0.788,0.490,0.993,0.708,0.320,0.569,0.534,���k��,9.7,��
2023/10/06,08:00,0.521,0.790,0.488,0.994,0.708,0.320,0.571,0.534,���k��,7.7,��
2023/10/06,08:10,0.521,0.791,0.489,0.993,0.706,0.317,0.569,0.533,��,7.6,��
2023/10/06,08:20,0.520,0.789,0.488,0.994,0.708,0.319,0.570,0.532,��,7.5,��
2023/10/06,08:30,0.518,0.787,0.491,0.992,0.708,0.317,0.571,0.533,��,10.5,��
2023/10/06,08:40,0.518,0.788,0.489,0.992,0.707,0.319,0.570,0.533,��,7.9,��
2023/10/06,08:50,0.518,0.789,0.489,0.994,0.708,0.319,0.570,0.534,��,8.4,��
2023/10/06,09:00,0.520,0.789,0.488,0.993,0.707,0.318,0.569,0.532,��,10.9,��
2023/10/06,09:10,0.519,0.792,0.491,0.995,0.706,0.317,0.569,0.533,��,10.6,��
2023/10/06,09:20,0.520,0.788,0.489,0.994,0.707,0.319,0.571,0.532,��,9.3,��
2023/10/06,09:30,0.520,0.790,0.490,0.994,0.707,0.320,0.570,0.532,��,9.6,��
2023/10/06,09:40,0.520,0.790,0.490,0.994,0.709,0.318,0.571,0.531,���쐼,10.6,��
2023/10/06,09:50,0.520,0.792,0.490,0.992,0.707,0.320,0.571,0.533,��,9.1,��
2023/10/06,10:00,0.519,0.791,0.488,0.995,0.708,0.317,0.571,0.532,��,8.6,��
2023/10/06,10:10,0.520,0.790,0.490,0.993,0.708,0.319,0.570,0.533,��,13.5,��
2023/10/06,10:20,0.520,0.792,0.489,0.993,0.710,0.318,0.570,0.533,��,10.7,��
2023/10/06,10:30,0.520,0.793,0.489,0.989,0.710,0.319,0.570,0.533,��,9.1,��
2023/10/06,10:40,0.523,0.790,0.489,0.985,0.709,0.320,0.570,0.533,��,8.4,��
2023/10/06,10:50,0.523,0.792,0.489,0.990,0.709,0.319,0.571,0.532,���k��,11.6,��
2023/10/06,11:00,0.522,0.794,0.490,0.990,0.711,0.320,0.570,0.533,���k��,13.0,��
2023/10/06,11:10,0.521,0.794,0.487,0.992,0.711,0.320,0.568,0.533,��,9.8,��
2023/10/06,11:20,0.521,0.794,0.487,0.993,0.710,0.321,0.571,0.533,��,9.0,��
2023/10/06,11:30,0.520,0.794,0.489,0.991,0.710,0.321,0.571,0.535,��,10.3,��
2023/10/06,11:40,0.518,0.794,0.488,0.990,0.711,0.320,0.570,0.535,��,12.4,��
2023/10/06,11:50,0.522,0.795,0.490,0.992,0.709,0.321,0.572,0.534,��,8.3,��
2023/10/06,12:00,0.524,0.794,0.491,0.994,0.710,0.322,0.571,0.532,���쐼,9.6,��
2023/10/06,12:10,0.524,0.795,0.489,0.995,0.711,0.322,0.570,0.534,��,10.5,��
2023/10/06,12:20,0.522,0.795,0.490,0.993,0.714,0.321,0.570,0.533,��,9.7,��
2023/10/06,12:30,0.522,0.795,0.491,0.994,0.712,0.320,0.571,0.535,��,10.5,��
2023/10/06,12:40,0.524,0.795,0.491,0.996,0.716,0.320,0.571,0.534,��,10.6,��
2023/10/06,12:50,0.523,0.796,0.491,0.996,0.712,0.321,0.571,0.534,��,10.5,��
2023/10/06,13:00,0.523,0.797,0.491,0.995,0.713,0.320,0.571,0.533,��,10.3,��
2023/10/06,13:10,0.524,0.796,0.491,0.995,0.714,0.321,0.572,0.533,��,9.8,��
2023/10/06,13:20,0.524,0.795,0.490,0.994,0.714,0.321,0.572,0.533,��,9.7,��
2023/10/06,13:30,0.524,0.794,0.492,0.996,0.713,0.320,0.572,0.534,��,9.8,��
2023/10/06,13:40,0.523,0.799,0.492,0.995,0.714,0.321,0.571,0.534,���쐼,7.6,��
2023/10/06,13:50,0.523,0.796,0.492,0.997,0.712,0.321,0.571,0.536,��,8.9,��
2023/10/06,14:00,0.523,0.796,0.491,0.996,0.714,0.322,0.571,0.532,��,11.4,��
2023/10/06,14:10,0.524,0.794,0.490,0.994,0.714,0.322,0.571,0.533,��,9.5,��
2023/10/06,14:20,0.524,0.796,0.491,0.995,0.715,0.321,0.571,0.535,��,8.0,��
2023/10/06,14:30,0.526,0.797,0.492,0.997,0.714,0.320,0.571,0.533,���k��,7.0,��
2023/10/06,14:40,0.525,0.798,0.492,0.997,0.715,0.321,0.571,0.533,���k��,7.9,��
2023/10/06,14:50,0.525,0.798,0.491,1.000,0.714,0.320,0.571,0.533,��,6.2,��
2023/10/06,15:00,0.525,0.797,0.493,0.999,0.716,0.321,0.569,0.532,��,8.5,��
2023/10/06,15:10,0.524,0.798,0.491,1.001,0.716,0.321,0.571,0.533,���k��,5.9,��
2023/10/06,15:20,0.525,0.797,0.490,0.999,0.715,0.319,0.572,0.532,��,8.5,��
2023/10/06,15:30,0.524,0.798,0.490,0.999,0.715,0.319,0.570,0.533,��,7.5,��
2023/10/06,15:40,0.525,0.797,0.493,0.998,0.717,0.320,0.571,0.533,��,5.9,��
2023/10/06,15:50,0.524,0.797,0.493,0.998,0.714,0.319,0.571,0.533,���k��,4.6,��
2023/10/06,16:00,0.524,0.796,0.491,0.997,0.716,0.320,0.572,0.533,��,5.7,��
2023/10/06,16:10,0.524,0.796,0.491,0.997,0.716,0.321,0.571,0.533,��,5.5,��
2023/10/06,16:20,0.525,0.800,0.490,0.998,0.714,0.322,0.571,0.533,���k��,3.9,��
2023/10/06,16:30,0.525,0.799,0.491,0.998,0.715,0.322,0.572,0.534,���k��,4.4,��
2023/10/06,16:40,0.525,0.797,0.489,0.999,0.713,0.322,0.570,0.534,���k��,4.6,��
2023/10/06,16:50,0.523,0.798,0.490,0.994,0.716,0.321,0.570,0.534,�k��,2.3,��
2023/10/06,17:00,0.524,0.802,0.489,1.002,0.715,0.322,0.572,0.534,�k��,1.1,��
2023/10/06,17:10,0.523,0.801,0.491,1.001,0.717,0.319,0.571,0.536,�k�k��,3.1,��
2023/10/06,17:20,0.525,0.799,0.494,1.000,0.718,0.321,0.573,0.535,�k�k��,3.5,��
2023/10/06,17:30,0.524,0.802,0.493,1.003,0.719,0.321,0.573,0.535,�k�k��,3.8,��
2023/10/06,17:40,0.525,0.802,0.494,1.003,0.720,0.322,0.572,0.533,�k��,3.8,��
2023/10/06,17:50,0.526,0.800,0.492,1.000,0.718,0.321,0.573,0.535,�k��,3.1,��
2023/10/06,18:00,0.527,0.801,0.492,1.002,0.718,0.321,0.572,0.535,���k��,2.3,��
2023/10/06,18:10,0.526,0.800,0.492,1.000,0.717,0.320,0.572,0.533,���쐼,2.6,��
2023/10/06,18:20,0.526,0.799,0.492,1.000,0.719,0.321,0.573,0.533,��,3.1,��
2023/10/06,18:30,0.526,0.800,0.492,1.000,0.719,0.320,0.573,0.532,�쐼,3.0,��
2023/10/06,18:40,0.526,0.801,0.493,1.003,0.717,0.322,0.571,0.534,�쐼,5.3,��
2023/10/06,18:50,0.524,0.802,0.492,1.002,0.716,0.321,0.573,0.533,���쐼,5.6,��
2023/10/06,19:00,0.527,0.799,0.492,1.001,0.719,0.321,0.573,0.532,���쐼,6.2,��
2023/10/06,19:10,0.525,0.800,0.493,1.000,0.717,0.320,0.575,0.533,��,5.0,��
2023/10/06,19:20,0.525,0.802,0.492,1.001,0.717,0.322,0.575,0.533,��,5.9,��
2023/10/06,19:30,0.525,0.801,0.492,1.004,0.717,0.321,0.573,0.533,��,6.6,��
2023/10/06,19:40,0.526,0.801,0.491,1.003,0.717,0.322,0.575,0.533,��,7.9,��
2023/10/06,19:50,0.526,0.801,0.492,1.003,0.718,0.320,0.575,0.533,���쐼,5.4,��
2023/10/06,20:00,0.524,0.802,0.492,1.003,0.720,0.321,0.573,0.533,���쐼,5.5,��
2023/10/06,20:10,0.524,0.800,0.493,1.004,0.716,0.321,0.575,0.533,��,3.7,��
2023/10/06,20:20,0.526,0.799,0.492,1.001,0.718,0.320,0.572,0.534,��,2.0,��
2023/10/06,20:30,0.524,0.801,0.492,1.001,0.716,0.321,0.573,0.535,��,2.2,��
2023/10/06,20:40,0.525,0.801,0.491,1.001,0.718,0.321,0.574,0.531,���쐼,2.0,��
2023/10/06,20:50,0.525,0.801,0.492,1.002,0.716,0.321,0.573,0.534,�쐼,2.9,��
2023/10/06,21:00,0.525,0.801,0.490,1.000,0.717,0.320,0.574,0.533,���쐼,2.8,��
2023/10/06,21:10,0.525,0.801,0.490,1.002,0.718,0.321,0.574,0.533,��,3.8,��
2023/10/06,21:20,0.525,0.799,0.492,1.002,0.716,0.320,0.574,0.532,��,5.6,��
2023/10/06,21:30,0.524,0.800,0.491,1.003,0.716,0.321,0.572,0.533,��,6.4,��
2023/10/06,21:40,0.525,0.800,0.492,1.002,0.718,0.321,0.573,0.532,��,7.3,��
2023/10/06,21:50,0.526,0.800,0.490,1.002,0.716,0.320,0.574,0.534,��,8.3,��
2023/10/06,22:00,0.525,0.801,0.492,1.002,0.716,0.321,0.574,0.533,��,7.8,��
2023/10/06,22:10,0.526,0.801,0.492,1.003,0.717,0.321,0.572,0.533,��,7.2,��
2023/10/06,22:20,0.525,0.800,0.491,1.000,0.714,0.320,0.574,0.533,��,8.3,��
2023/10/06,22:30,0.526,0.799,0.492,1.002,0.719,0.323,0.574,0.532,���k��,6.9,��
2023/10/06,22:40,0.526,0.801,0.493,1.002,0.716,0.320,0.572,0.531,��,5.6,��
2023/10/06,22:50,0.525,0.800,0.492,1.003,0.717,0.322,0.574,0.533,���k��,6.2,��
2023/10/06,23:00,0.526,0.802,0.492,1.002,0.717,0.321,0.574,0.533,���k��,7.2,��
2023/10/06,23:10,0.527,0.800,0.492,1.003,0.717,0.321,0.574,0.532,���k��,8.7,��
2023/10/06,23:20,0.526,0.800,0.492,1.002,0.718,0.321,0.571,0.532,���k��,8.3,��
2023/10/06,23:30,0.526,0.800,0.493,1.002,0.719,0.321,0.573,0.534,���k��,7.2,��
2023/10/06,23:40,0.526,0.801,0.493,1.002,0.719,0.322,0.571,0.532,��,7.0,��
2023/10/06,23:50,0.525,0.801,0.491,1.001,0.718,0.321,0.576,0.533,���쐼,4.0,��
